Погода в Бясь-Кюёль

Россия / Республика Саха (Якутия)     59°28′24″N   119°18′08″E
темп.,
°C
ветер,
м/с
пор.,
м/с
влажн.,
%
обл.,
%
осадки,
мм/ч
давл.,
гПа
погр.,
м
3 марта, ср
ср300:00−29ссв119494 0.0 101819
03:00−30ссв119597 0.0 101719
06:00−28ссв1198100 0.1 101819
09:00−28ссв1198100 0.1 101981
12:00−24ссв1190100 0.1 1018404
15:00−23с2387100 0.1 1018577
18:00−23ссв1296100 0.1 102184
21:00−26ссв1198100 0.2 102322
4 марта, чт
чт400:00−27сз2298100 0.1 102645
03:00−32сз229797 0.1 102819
06:00−35зсз229879 0.0 103019
09:00−35з129675 0.0 103333
12:00−28зсз388685 0.0 1033714
15:00−25зсз598293 0.0 1033978
18:00−25зсз4985100 0.0 1034961
21:00−27зсз31387100 0.0 1037680
5 марта, пт
пт500:00−28зсз31385100 0.0 1038613
03:00−32з2288100 0.0 104023
06:00−34зюз128544 0.0 104019
09:00−32юз128622 0.0 104040
12:00−25ююз23770 0.0 1038374
15:00−21ююз23780 0.0 1035499
18:00−23ю22880 0.0 103320
21:00−28ю12883 0.0 103319
6 марта, сб
сб600:00−30ю12900 0.0 103119
03:00−30ююв11912 0.0 103019
06:00−30юв119059 0.0 102819
09:00−27юв118675 0.0 102652
12:00−20ююв1284100 0.0 1022319
15:00−15юв1287100 0.1 1019422
18:00−14всв1195100 0.1 101873
21:00−17в1197100 0.1 101820
7 марта, вс
вс700:00−17юв1198100 0.1 101720
03:00−16вюв119799 0.3 101720
06:00−17ююв119799 0.1 101720
09:00−14ю119699 0.2 101858
12:00−8зюз2689100 0.2 1017492
15:00−5з3682100 0.4 1016891
18:00−6юз2588100 0.2 1015171
21:00−12ю128977 0.2 101421